weather.gov     
National Weather Service

Regional Weather Roundup
NWS Homepage
This page is being discontinued on March 12, 2014.
The same data is available at this site. Please update your bookmarks.
Thank you, and we apologize for the inconvenience.
Please send an email to SR-SRH.Webmaster@noaa.gov with any concerns.


Current Version
Previous Version:    01  02  03  04  05  06  07  08  09  10  11  12  13  14  15  16  17  18  19  20  21  22  23  24  25  26  27  28  29  30  
   31  32  33  34  35  36  37  38  39  40  41  42  43  44  45  46  47  48  49  50  51  52  53  54  55  56  57  58  59  60  
[Printable]
973
ASUS43 KGLD 012208
RWRGLD

GOODLAND FORECAST AREA HOURLY WEATHER ROUNDUP
NATIONAL WEATHER SERVICE GOODLAND KS
400 PM MDT WED OCT 01 2014

...OFFICIAL OBSERVATIONS...

CITY           SKY/WX    TMP DP  RH WIND       PRES   REMARKS
GOODLAND KS    MOSUNNY   76  40  27 VRB5      29.79F
HILL CITY KS   SUNNY     81  50  33 CALM      29.73S
IMPERIAL NEB   MOSUNNY   73  41  31 E3        29.78S
MCCOOK NEB     SUNNY     77  43  29 VRB3      29.75S
AKRON CO       MOSUNNY   67  41  38 VRB7      29.82F
BURLINGTON CO  MOSUNNY   72  36  26 SE7       29.81F
LIMON CO       CLOUDY    68  34  28 S14G24    29.82F
$$

...UNOFFICIAL OBSERVATIONS...

CITY           SKY/WX    TMP DP  RH WIND       PRES   REMARKS
COLBY KS       MOSUNNY   79  48  34 SE5       29.78S
GOVE KS          N/A     79  32  18 MISG        N/A
NORTON KS      MOSUNNY   79  37  22 SE3       29.72F
SHARON SPRINGS   N/A     78  43  28 CALM        N/A
TRENTON NEB      N/A     75  32  20 CALM        N/A
KIT CARSON CO    N/A     72  41  32 MISG        N/A
YUMA CO          N/A     68  43  40 CALM        N/A
$$




U.S. Dept. of Commerce
NOAA National Weather Service
1325 East West Highway
Silver Spring, MD 20910
E-mail: w-nws.webmaster@noaa.gov
Page last modified: May 16, 2007
NATIONAL WEATHER SERVICE: for Safety, for Work, for Fun - FOR LIFE